| time (UTC) | temp F | wind direction | speed knots | gust knots | rain 1hr in | rain 24hr in | rain mn in | humidity % | barometer mb |
| 20260504204706 | 86 | 157 | 1.7 | 7.8 | 0.00 | 0.00 | 0.00 | 44 | 1014.2 |
| 20260504204206 | 86 | 44 | 2.6 | 8.7 | 0.00 | 0.00 | 0.00 | 43 | 1014.2 |
| 20260504202706 | 87 | 133 | 0.9 | 7.8 | 0.00 | 0.00 | 0.00 | 42 | 1014.3 |
| 20260504201706 | 88 | 46 | 4.3 | 7.8 | 0.00 | 0.00 | 0.00 | 40 | 1014.2 |
| 20260504201206 | 87 | 110 | 0.9 | 7.8 | 0.00 | 0.00 | 0.00 | 40 | 1014.3 |
| 20260504195706 | 87 | 63 | 3.5 | 11.3 | 0.00 | 0.00 | 0.00 | 43 | 1014.5 |
| 20260504195206 | 86 | 19 | 3.5 | 11.3 | 0.00 | 0.00 | 0.00 | 42 | 1014.7 |
| 20260504194707 | 86 | 36 | 6.1 | 9.6 | 0.00 | 0.00 | 0.00 | 42 | 1014.6 |
| 20260504193706 | 85 | 146 | 2.6 | 7.8 | 0.00 | 0.00 | 0.00 | 42 | 1015.1 |
| 20260504192706 | 85 | 166 | 2.6 | 9.6 | 0.00 | 0.00 | 0.00 | 42 | 1014.9 |
| 20260504192206 | 85 | 89 | 2.6 | 9.6 | 0.00 | 0.00 | 0.00 | 42 | 1015.1 |
| 20260504191706 | 86 | 50 | 6.1 | 8.7 | 0.00 | 0.00 | 0.00 | 42 | 1015.1 |
| 20260504191207 | 87 | 9 | 0.9 | 8.7 | 0.00 | 0.00 | 0.00 | 42 | 1015.2 |
| 20260504190707 | 87 | 38 | 0.9 | 8.7 | 0.00 | 0.00 | 0.00 | 40 | 1015.2 |
| 20260504190207 | 86 | 9 | 3.5 | 7.8 | 0.00 | 0.00 | 0.00 | 41 | 1015.3 |
| 20260504185706 | 86 | 87 | 0.9 | 13.9 | 0.00 | 0.00 | 0.00 | 41 | 1015.4 |
| 20260504185206 | 86 | 64 | 0.9 | 13.9 | 0.00 | 0.00 | 0.00 | 41 | 1015.3 |
| 20260504184706 | 86 | 51 | 0.9 | 9.6 | 0.00 | 0.00 | 0.00 | 41 | 1015.5 |
| 20260504183206 | 87 | 80 | 8.7 | 9.6 | 0.00 | 0.00 | 0.00 | 40 | 1015.9 |
| 20260504182707 | 86 | 86 | 9.6 | 9.6 | 0.00 | 0.00 | 0.00 | 42 | 1016.0 |
| 20260504181706 | 85 | 40 | 0.9 | 7.0 | 0.00 | 0.00 | 0.00 | 43 | 1016.3 |
| 20260504181206 | 84 | 14 | 1.7 | 7.0 | 0.00 | 0.00 | 0.00 | 43 | 1016.3 |
| 20260504180706 | 84 | 69 | 1.7 | 7.8 | 0.00 | 0.00 | 0.00 | 43 | 1016.3 |
| 20260504175206 | 83 | 35 | 1.7 | 9.6 | 0.00 | 0.00 | 0.00 | 44 | 1016.5 |
| 20260504174706 | 83 | 27 | 3.5 | 9.6 | 0.00 | 0.00 | 0.00 | 43 | 1016.5 |
| 20260504174206 | 83 | 60 | 0.9 | 9.6 | 0.00 | 0.00 | 0.00 | 44 | 1016.5 |
| 20260504173707 | 84 | 60 | 7.8 | 10.4 | 0.00 | 0.00 | 0.00 | 43 | 1016.6 |
| 20260504173206 | 84 | 59 | 5.2 | 10.4 | 0.00 | 0.00 | 0.00 | 43 | 1016.6 |
| 20260504172706 | 84 | 56 | 8.7 | 8.7 | 0.00 | 0.00 | 0.00 | 43 | 1016.6 |
| 20260504172206 | 84 | 94 | 2.6 | 9.6 | 0.00 | 0.00 | 0.00 | 43 | 1016.7 |
| 20260504171706 | 84 | 87 | 4.3 | 9.6 | 0.00 | 0.00 | 0.00 | 44 | 1016.7 |
| 20260504171206 | 84 | 30 | 2.6 | 7.8 | 0.00 | 0.00 | 0.00 | 45 | 1016.7 |
| 20260504170706 | 83 | 45 | 2.6 | 6.1 | 0.00 | 0.00 | 0.00 | 45 | 1016.7 |
| 20260504170206 | 83 | 16 | 2.6 | 11.3 | 0.00 | 0.00 | 0.00 | 47 | 1016.7 |
| 20260504160207 | 82 | 65 | 2.6 | 12.2 | 0.00 | 0.00 | 0.00 | 45 | 1017.5 |
| 20260504150706 | 80 | 61 | 2.6 | 10.4 | 0.00 | 0.00 | 0.00 | 48 | 1017.8 |
| 20260504150206 | 79 | 355 | 3.5 | 10.4 | 0.00 | 0.00 | 0.00 | 49 | 1017.7 |
| 20260504141206 | 77 | 82 | 9.6 | 13.0 | 0.00 | 0.00 | 0.00 | 58 | 1017.6 |
| 20260504140706 | 77 | 56 | 6.1 | 13.0 | 0.00 | 0.00 | 0.00 | 58 | 1017.6 |
| 20260504140206 | 76 | 18 | 3.5 | 11.3 | 0.00 | 0.00 | 0.00 | 59 | 1017.6 |
| 20260504130706 | 73 | 30 | 2.6 | 8.7 | 0.00 | 0.00 | 0.00 | 66 | 1017.4 |
| 20260504130206 | 72 | 75 | 3.5 | 8.7 | 0.00 | 0.00 | 0.00 | 65 | 1017.3 |
| 20260504110706 | 62 | 38 | 0.9 | 2.6 | 0.00 | 0.00 | 0.00 | 82 | 1016.6 |
| 20260504110206 | 62 | 20 | 1.7 | 2.6 | 0.00 | 0.00 | 0.00 | 82 | 1016.7 |
| 20260504100206 | 63 | 39 | 0.9 | 3.5 | 0.00 | 0.01 | 0.00 | 82 | 1016.3 |
| 20260504081206 | 65 | 28 | 1.7 | 1.7 | 0.00 | 0.03 | 0.00 | 78 | 1016.1 |
| 20260504080707 | 65 | 24 | 0.9 | 1.7 | 0.00 | 0.03 | 0.00 | 78 | 1016.1 |
| 20260504080206 | 65 | 19 | 0.0 | 1.7 | 0.00 | 0.03 | 0.00 | 78 | 1016.3 |
| 20260504070206 | 66 | 24 | 0.0 | 1.7 | 0.00 | 0.04 | 0.00 | 78 | 1016.6 |
| 20260504060206 | 66 | 33 | 0.0 | 0.0 | 0.00 | 0.06 | 0.00 | 77 | 1016.7 |
| 20260504050706 | 67 | 55 | 0.9 | 2.6 | 0.00 | 0.06 | 0.00 | 76 | 1016.9 |
| 20260504050206 | 67 | 67 | 0.9 | 1.7 | 0.00 | 0.07 | 0.00 | 76 | 1017.0 |
| 20260504045206 | 67 | 67 | 0.0 | 1.7 | 0.00 | 0.07 | 0.00 | 76 | 1017.5 |
| 20260504044207 | 68 | 49 | 0.9 | 1.7 | 0.00 | 0.08 | 0.00 | 75 | 1017.5 |
| 20260504043706 | 68 | 66 | 0.9 | 0.9 | 0.00 | 0.08 | 0.00 | 74 | 1017.6 |
| 20260504043206 | 68 | 66 | 0.0 | 0.0 | 0.00 | 0.09 | 0.00 | 74 | 1017.9 |
| 20260504042707 | 68 | 66 | 0.0 | 0.0 | 0.00 | 0.09 | 0.00 | 74 | 1017.8 |
| 20260504042206 | 68 | 66 | 0.0 | 0.0 | 0.00 | 0.09 | 0.00 | 74 | 1017.7 |
| 20260504041707 | 68 | 66 | 0.0 | 0.0 | 0.00 | 0.09 | 0.00 | 74 | 1017.7 |
| 20260504041207 | 68 | 66 | 0.0 | 0.9 | 0.00 | 0.09 | 0.00 | 73 | 1017.8 |
| 20260504040707 | 68 | 66 | 0.0 | 1.7 | 0.00 | 0.09 | 0.00 | 73 | 1017.9 |
| 20260504040206 | 68 | 66 | 0.9 | 1.7 | 0.00 | 0.09 | 0.00 | 73 | 1017.9 |
| 20260504035707 | 69 | 76 | 0.0 | 1.7 | 0.00 | 0.09 | 0.00 | 73 | 1017.7 |
| 20260504035206 | 69 | 94 | 0.0 | 2.6 | 0.00 | 0.09 | 0.09 | 73 | 1017.8 |
| 20260504034707 | 69 | 79 | 0.9 | 2.6 | 0.00 | 0.09 | 0.09 | 73 | 1017.8 |
| 20260504034206 | 69 | 82 | 2.6 | 2.6 | 0.00 | 0.09 | 0.09 | 73 | 1017.7 |
| 20260504033707 | 69 | 61 | 0.9 | 1.7 | 0.00 | 0.09 | 0.09 | 73 | 1017.9 |
| 20260504032706 | 69 | 86 | 0.9 | 2.6 | 0.00 | 0.09 | 0.09 | 72 | 1017.7 |
| 20260504032207 | 69 | 73 | 1.7 | 3.5 | 0.00 | 0.09 | 0.09 | 72 | 1017.6 |
| 20260504031706 | 70 | 71 | 1.7 | 3.5 | 0.00 | 0.09 | 0.09 | 72 | 1017.6 |
| 20260504031207 | 70 | 80 | 0.9 | 3.5 | 0.00 | 0.09 | 0.09 | 72 | 1017.7 |
| 20260504030707 | 70 | 68 | 2.6 | 3.5 | 0.00 | 0.09 | 0.09 | 72 | 1017.4 |
| 20260504030207 | 70 | 48 | 1.7 | 3.5 | 0.00 | 0.09 | 0.09 | 72 | 1017.6 |
| 20260504025706 | 70 | 112 | 1.7 | 3.5 | 0.00 | 0.10 | 0.09 | 72 | 1017.6 |
| 20260504025206 | 70 | 53 | 0.9 | 5.2 | 0.00 | 0.11 | 0.09 | 72 | 1017.6 |
| 20260504024706 | 70 | 71 | 1.7 | 5.2 | 0.00 | 0.11 | 0.09 | 72 | 1017.6 |
| 20260504023707 | 70 | 74 | 0.9 | 4.3 | 0.00 | 0.11 | 0.09 | 71 | 1017.6 |
| 20260504023206 | 70 | 83 | 2.6 | 5.2 | 0.00 | 0.11 | 0.09 | 71 | 1017.4 |
| 20260504022206 | 70 | 72 | 0.9 | 5.2 | 0.00 | 0.11 | 0.09 | 71 | 1017.4 |
| 20260504020707 | 71 | 32 | 2.6 | 3.5 | 0.00 | 0.11 | 0.09 | 71 | 1017.3 |
| 20260504020206 | 71 | 74 | 0.9 | 3.5 | 0.00 | 0.11 | 0.09 | 71 | 1017.3 |
| 20260504015707 | 71 | 74 | 0.9 | 2.6 | 0.00 | 0.11 | 0.09 | 71 | 1017.2 |
| 20260504015207 | 71 | 49 | 1.7 | 3.5 | 0.00 | 0.11 | 0.09 | 71 | 1017.1 |
| 20260504014706 | 71 | 51 | 0.9 | 3.5 | 0.00 | 0.11 | 0.09 | 71 | 1017.2 |
| 20260504014207 | 71 | 53 | 0.9 | 3.5 | 0.00 | 0.11 | 0.09 | 70 | 1017.2 |
| 20260504013207 | 71 | 102 | 0.9 | 3.5 | 0.00 | 0.11 | 0.09 | 70 | 1016.9 |
| 20260504012706 | 71 | 73 | 2.6 | 3.5 | 0.00 | 0.11 | 0.09 | 70 | 1017.1 |
| 20260504012206 | 72 | 74 | 0.9 | 3.5 | 0.00 | 0.11 | 0.09 | 70 | 1017.0 |
| 20260504011206 | 72 | 72 | 1.7 | 4.3 | 0.00 | 0.11 | 0.09 | 69 | 1016.8 |
| 20260504005707 | 72 | 100 | 0.9 | 1.7 | 0.00 | 0.11 | 0.09 | 69 | 1016.4 |
| 20260504005206 | 73 | 60 | 1.7 | 2.6 | 0.00 | 0.11 | 0.09 | 68 | 1016.4 |
| 20260504004707 | 73 | 59 | 1.7 | 3.5 | 0.00 | 0.11 | 0.09 | 67 | 1016.4 |
| 20260504004206 | 73 | 57 | 1.7 | 3.5 | 0.00 | 0.11 | 0.09 | 67 | 1016.3 |
| 20260504003707 | 73 | 48 | 1.7 | 3.5 | 0.00 | 0.11 | 0.09 | 67 | 1016.3 |
| 20260504002707 | 74 | 56 | 1.7 | 3.5 | 0.00 | 0.11 | 0.09 | 66 | 1015.9 |
| 20260504002206 | 74 | 57 | 1.7 | 3.5 | 0.00 | 0.11 | 0.09 | 65 | 1016.0 |
| 20260504001706 | 74 | 67 | 0.9 | 3.5 | 0.00 | 0.11 | 0.09 | 65 | 1016.0 |
| 20260504000706 | 75 | 63 | 0.9 | 3.5 | 0.00 | 0.11 | 0.09 | 64 | 1015.9 |
| 20260504000206 | 75 | 74 | 0.9 | 3.5 | 0.00 | 0.11 | 0.09 | 64 | 1015.9 |
| 20260503235706 | 75 | 80 | 1.7 | 4.3 | 0.00 | 0.11 | 0.09 | 64 | 1015.9 |
| 20260503234707 | 76 | 113 | 2.6 | 5.2 | 0.00 | 0.11 | 0.09 | 63 | 1015.9 |
| 20260503234207 | 76 | 71 | 0.9 | 5.2 | 0.00 | 0.11 | 0.09 | 62 | 1015.8 |
| 20260503233707 | 76 | 80 | 0.9 | 5.2 | 0.00 | 0.11 | 0.09 | 62 | 1015.6 |
| 20260503233206 | 76 | 76 | 2.6 | 5.2 | 0.00 | 0.11 | 0.09 | 62 | 1015.6 |
| 20260503232706 | 76 | 51 | 2.6 | 4.3 | 0.00 | 0.11 | 0.09 | 61 | 1015.7 |
| 20260503232206 | 77 | 79 | 0.0 | 7.0 | 0.00 | 0.11 | 0.09 | 61 | 1015.6 |
| 20260503230706 | 77 | 52 | 3.5 | 6.1 | 0.00 | 0.11 | 0.09 | 60 | 1015.6 |
| 20260503230207 | 77 | 78 | 2.6 | 4.3 | 0.00 | 0.11 | 0.09 | 60 | 1015.6 |
| 20260503225706 | 77 | 34 | 0.9 | 6.1 | 0.00 | 0.11 | 0.09 | 60 | 1015.6 |
| 20260503225206 | 77 | 22 | 0.9 | 7.0 | 0.00 | 0.12 | 0.09 | 60 | 1015.5 |
| 20260503224706 | 78 | 78 | 6.1 | 7.8 | 0.00 | 0.12 | 0.09 | 60 | 1015.5 |
| 20260503224207 | 78 | 68 | 2.6 | 7.8 | 0.00 | 0.12 | 0.09 | 59 | 1015.5 |
| 20260503222706 | 78 | 80 | 0.0 | 6.1 | 0.00 | 0.13 | 0.09 | 59 | 1015.5 |
| 20260503222206 | 78 | 47 | 2.6 | 6.1 | 0.00 | 0.14 | 0.09 | 58 | 1015.5 |
| 20260503221707 | 79 | 105 | 3.5 | 5.2 | 0.00 | 0.15 | 0.09 | 58 | 1015.5 |
| 20260503221207 | 79 | 84 | 4.3 | 5.2 | 0.00 | 0.16 | 0.09 | 57 | 1015.5 |
| 20260503220706 | 79 | 54 | 2.6 | 6.1 | 0.00 | 0.16 | 0.09 | 57 | 1015.5 |
| 20260503220206 | 79 | 57 | 1.7 | 6.1 | 0.00 | 0.17 | 0.09 | 57 | 1015.4 |
| 20260503215706 | 79 | 92 | 5.2 | 7.0 | 0.00 | 0.17 | 0.09 | 58 | 1015.4 |
| 20260503214706 | 80 | 76 | 1.7 | 6.1 | 0.00 | 0.17 | 0.09 | 56 | 1015.5 |
| 20260503214207 | 80 | 53 | 2.6 | 6.1 | 0.00 | 0.17 | 0.09 | 55 | 1015.4 |
| 20260503213706 | 80 | 68 | 0.9 | 7.0 | 0.00 | 0.18 | 0.09 | 55 | 1015.5 |
| 20260503213206 | 80 | 63 | 2.6 | 7.0 | 0.00 | 0.18 | 0.09 | 54 | 1015.5 |
| 20260503212706 | 80 | 55 | 0.9 | 6.1 | 0.00 | 0.18 | 0.09 | 54 | 1015.5 |
| 20260503211707 | 82 | 75 | 3.5 | 10.4 | 0.00 | 0.19 | 0.09 | 52 | 1015.5 |
| 20260503211206 | 81 | 49 | 2.6 | 5.2 | 0.00 | 0.19 | 0.09 | 53 | 1015.3 |
| 20260503210707 | 81 | 62 | 1.7 | 4.3 | 0.00 | 0.19 | 0.09 | 53 | 1015.5 |
| 20260503205706 | 81 | 55 | 3.5 | 8.7 | 0.00 | 0.19 | 0.09 | 53 | 1015.6 |
| 20260503205207 | 82 | 17 | 1.7 | 8.7 | 0.00 | 0.19 | 0.09 | 53 | 1015.5 |